Regional Weather Roundup
Issued by NWS

Home | Current Version | Previous Version | Text Only | Print | Product List | Glossary On
Versions: 1 2 3 4 5 6 7 8 9 10 11 12 13 14 15 16 17 18 19 20 21 22 23 24 25 26 27 28 29 30 31 32 33 34 35 36 37 38 39 40 41 42 43 44 45 46 47 48 49 50
000
ASUS43 KLOT 210109
RWRIL

ILLINOIS REGIONAL WEATHER ROUNDUP
NATIONAL WEATHER SERVICE CHICAGO/ROMEOVILLE IL
800 PM CDT THU JUL 20 2017

NOTE: "FAIR" INDICATES FEW OR NO CLOUDS BELOW 12,000 FEET WITH NO
SIGNIFICANT WEATHER AND/OR OBSTRUCTIONS TO VISIBILITY.

* THESE STATIONS ARE NOT UNDER NWS QUALITY CONTROL. THEY ALSO MAY NOT
  REPORT WEATHER SUCH AS PRECIPITATION OR FOG.

ILZ001-002-007-009-015-016-024-210200-
NORTHWEST ILLINOIS

CITY           SKY/WX    TMP DP  RH WIND       PRES   REMARKS
MOLINE         CLOUDY    87  78  74 NE13      29.93R HX 100
STERLING*      CLOUDY    82  78  88 NE5       29.96S HX  91
SAVANNA*       CLOUDY    83  79  87 CALM      29.95F HX  93
$$

ILZ003-004-008-010-011-017-018-210200-
NORTH CENTRAL ILLINOIS

CITY           SKY/WX    TMP DP  RH WIND       PRES   REMARKS
ROCKFORD       MOCLDY    84  76  76 W6        29.97R HX  93
FREEPORT*      PTCLDY    81  75  81 CALM      29.99S HX  87
ROCHELLE*      CLEAR     81  77  88 CALM      29.98R HX  88
DE KALB*       CLOUDY    81  77  89 CALM      29.99R HX  88
PERU*          MOCLDY    79  71  77 NE5       29.97R HX  81
$$

ILZ005-006-012>014-019>023-210200-
NORTHEAST ILLINOIS

CITY           SKY/WX    TMP DP  RH WIND       PRES   REMARKS
CHICAGO-OHARE  MOCLDY    80  69  69 NE7       29.96R HX  83
CHICAGO-MIDWAY MOCLDY    80  70  71 E10       29.96R HX  83
AURORA         MOCLDY    82  79  90 NW3       29.97R HX  92
LANSING*       CLOUDY    80  69  69 E6        29.97R HX  82
JOLIET*        CLOUDY    85  78  78 CALM      29.95S HX  97
WAUKEGAN       CLEAR     76  70  82 CALM      29.97R
DUPAGE AIRPORT CLOUDY    81  75  82 E7        29.96R HX  87
WHEELING       CLOUDY    78  72  81 SE5       29.98R HX  80
MORRIS*        CLOUDY    82  77  86 CALM      29.95R HX  90
ROMEOVILLE*    CLOUDY    82  74  78 NE5       29.96S HX  88
NORTHERLY ISL    N/A     75  69  81 CALM        N/A
$$

LMZ740>746-210200-
SOUTHERN LAKE MICHIGAN

STATION/POSITION SKY/WX   TEMP    WIND        PRES    VSBY  WAVE
                          AIR SEA DIR/SP/G                  HT/PER
                          (F)     (DEG/KT/KT) (MB)    (MI)  (FT/S)
SOUTHERN BUOY              73 72  120/  4/  4 1014.3          1/ 4
WILMETTE HARBOR            74 72   CALM  /  2   N/A           1
HARRISON CRIB              75     120/  1/  2   N/A
BURNHAM HARBOR             75                   N/A
CALUMET HARBOR             75      60/  4/  5 1014.2F
BURNS HARBOR               76      80/  7/  8 1014.9S
MICHIGAN CITY              75      60/  7/  7   N/A
MICHIGAN CITY 6N           75 74  100/  4/  4   N/A           1
ST. JOSEPH                 76 75   50/  4/  4 1014.1          1
$$

ILZ025>027-034>036-040-047-049-050-058-095>099-210200-
WEST-CENTRAL ILLINOIS

CITY           SKY/WX    TMP DP  RH WIND       PRES   REMARKS
QUINCY         CLEAR     90  77  65 SW5       29.94R HX 103
GALESBURG*     CLOUDY    85  81  87 CALM      29.95S HX 100
MACOMB*        PTCLDY    85  79  81 SW6       29.95S HX  98
JACKSONVILLE*  CLEAR     88  76  68 SW5       29.95R HX  99
PITTSFIELD*    CLEAR     90  76  63 SW6       29.96S HX 101
$$

ILZ028>032-037-038-041>044-048-051>054-059>061-210200-
CENTRAL ILLINOIS

CITY           SKY/WX    TMP DP  RH WIND       PRES   REMARKS
PONTIAC        MOCLDY    85  82  91 NE8       29.96R HX 102
BLOOMINGTON    MOCLDY    88  78  72 SW6       29.97R HX 101
DECATUR        CLEAR     87  74  64 SW7       29.95S HX  95
PEORIA         CLOUDY    89  82  79 CALM      29.94R HX 110
LACON*         MOCLDY    85  81  86 CALM      29.93S HX 100
LINCOLN*       CLEAR     90  81  74 CALM      29.94S HX 108
SPRINGFIELD    CLEAR     90  79  70 SW5       29.95R HX 106
TAYLORVILLE    CLEAR     86  77  75 S6        29.96R HX  96
$$

ILZ033-039-045-046-055>057-062-063-210200-
EAST-CENTRAL ILLINOIS

CITY           SKY/WX    TMP DP  RH WIND       PRES   REMARKS
CHAMPAIGN      CLEAR     82  77  83 SW6       29.96S HX  91
RANTOUL*       CLEAR     87  79  77 SW6       29.95S HX 101
MATTOON        CLEAR     87  74  64 SW5       29.96S HX  95
PARIS*         CLEAR     82  78  87 SW3       29.97S HX  92
$$

ILZ079-100>102-210200-
SOUTHWEST ILLINOIS

CITY           SKY/WX    TMP DP  RH WIND       PRES   REMARKS
ALTON          PTCLDY    88  77  70 S6        29.96S HX 100
BELLEVILLE     CLEAR     89  73  58 SW6       29.97S HX  97
CAHOKIA*       CLEAR     91  72  53 S6        29.94F HX  98
SPARTA*        CLOUDY    89  75  63 S8        29.98F HX  98
$$

ILZ064>066-069>071-074>076-080>082-084>086-088>090-092>094-210200-
SOUTH-CENTRAL ILLINOIS

CITY           SKY/WX    TMP DP  RH WIND       PRES   REMARKS
CARBONDALE     PTCLDY    85  77  77 S6        29.98F HX  95
CAIRO*         CLEAR     86  75  69 CALM      30.00S HX  96
EFFINGHAM*     CLEAR     89  74  62 CALM      29.98S HX  98
MARION         CLEAR     86  75  70 CALM      29.99F HX  95
MT. VERNON     PTCLDY    86  76  71 SW3       29.98S HX  96
CENTRALIA*     CLEAR     88  77  71 S6        29.97S HX 100
SALEM*         CLEAR     89  73  59 S6        29.97S HX  96
METROPOLIS*    CLEAR     86  78  75 S3        30.00F HX  98
$$

ILZ067-068-072-073-078-083-087-091-210200-
SOUTHEAST ILLINOIS

CITY           SKY/WX    TMP DP  RH WIND       PRES   REMARKS
LAWRENCEVILLE  CLEAR     85  76  74 S6        29.97S HX  94
FLORA*         CLEAR     88  74  64 S6        29.97S HX  96
FAIRFIELD*     CLEAR     86  75  70 CALM      29.96S HX  95
HARRISBURG*    PTCLDY    85  77  76 SW5       29.98F HX  96
ROBINSON*      CLEAR     83  75  76 S6        29.97S HX  91
CARMI*         CLOUDY    84  77  78 SW5       29.97S HX  94
$$

ABBREVIATIONS USED IN REMARKS
   TC - TEMPERATURE IN CELSIUS
  WCI - WIND CHILL INDEX
   HX - HEAT INDEX
  VSB - VISIBILITY
$$




USA.gov is the U.S. government's official web portal to all federal, state and local government web resources and services.